星链-5726 (STARLINK-5726 )

导读

STARLINK-5726是美国太空探索技术公司(SpaceX)星链(Starlink)项目的一颗卫星,于2023年2月12日发射升空。它属于星链第二代卫星,旨在完善全球卫星互联网覆盖,为地面用户提供高速低延迟的宽带互联网服务,服务场景涵盖偏远地区网络接入、移动场景联网等,是SpaceX推进卫星星座组网的一环。

基本信息
目录编号:
55608
目录名称:
STARLINK-5726
国际标识:
2023-020AR
轨道中心:
EARTH
卫星名称:
星链-5726
卫星全名:
星链-5726 (STARLINK-5726 )
卫星状态:
在轨 (已飞行1307 天)
发射日期:
2023-02-12 UTC
国别 :
美国 (US)
星等 :
--
该卫星已列入 空间交会检测服务 Space Conjunction Data Service (SCDS) ,当前飞行风险评估等级: 无高风险
轨道信息
数据来源 国际轨道数据
星历时间: 2026-09-11T18:16:46+0800
11小时前
查看轨道信息
半长轴: 6861.186km
偏心率: 0.0002314
轨道倾角: 43.005°
近地点辐角 276.624°
升交点赤经 25.441°
平近点角 83.435°
近地点: 481.461km
远地点: 484.637km
周期: 94.267分钟
每日圈数: 15.275801
详细信息
固有亮度:
5
最大亮度:
2.5
卫星平台:
Starlink v1.5
覆盖范围:
全球
运营商:
太空探索技术公司
运营商所在国:
美国
制造商(研发单位):
太空探索技术公司
制造商所在国:
美国
使用方式:
暂无
卫星简介
星链(Starlink)计划是由太空探索技术公司(SpaceX)提出的一个巨型低轨卫星互联网星座项目,计划在2019年至2024年间在太空搭建由约1.2万颗卫星组成的“星链”网络,其中1584颗将部署在地球上空550千米处的近地轨道,并从2020年开始工作。该卫星仍在工作。
2D轨道图
3D轨道图
轨道高度分析图
轨道倾角分析图
轨道综合分析图
查看轨道综合分析图
交会数据列表
事件ID 空间交会对象 最接近时刻(TCA) 交会距离 交会风险概率(CRP) 交会风险指数(CRI) 操作
CDM_260914-031905-505105-560821
2026-09-14T
03:19:29+0000
0.585 km
远距离
8.883277E-5 中风险 0.74
CDM_260913-211305-560806-745021
2026-09-13T
21:13:01+0000
0.647 km
远距离
8.305892E-5 中风险 0.73
CDM_260912-092905-560806-703722
2026-09-12T
09:29:52+0000
0.759 km
远距离
2.706151E-5 中风险 0.64
CDM_260913-075205-560806-745021
2026-09-13T
07:52:43+0000
1.303 km
极远距离
8.243674E-6 低风险 0.53
CDM_260912-132505-560806-703721
2026-09-12T
13:25:14+0000
1.216 km
极远距离
5.479291E-6 低风险 0.5
CDM_260913-092605-560806-745021
2026-09-13T
09:26:52+0000
1.738 km
极远距离
3.278396E-6 低风险 0.45
CDM_260913-193805-560806-745021
2026-09-13T
19:38:52+0000
2.196 km
极远距离
1.799502E-6 低风险 0.4
CDM_260913-190805-560806-124122
OBJECT D (61241)
2026-09-13T
19:08:38+0000
2.534 km
极远距离
1.52079E-6 低风险 0.39
CDM_260913-012305-505105-560822
2026-09-13T
01:23:47+0000
2.722 km
极远距离
1.023962E-6 低风险 0.35
CDM_260914-014505-505105-560821
2026-09-14T
01:45:11+0000
2.982 km
极远距离
8.980373E-7 极低风险 0.34
与全量物体交会距离演化趋势
与全量物体交会风险概率演化趋势